Flag for Germany Weather past 2 weeks in Langen, Hesse, Germany

Now
36 °F

Scattered clouds.


Feels Like: 30 °F
Forecast: 36 / 44 °F
Wind: 7 mph from South

Location: Frankfurt-M-Flughafen Airport

Current Time: Mar 3, 2015 at 9:15:03 AM

Latest Report: Mar 3, 2015 at 8:20 AM


Visibility: N/A

Pressure: 30.15 "Hg

Humidity: 81%

Dew point: 30 °F

Location of LangenLocation

Historic Weather in Langen — Graph

°F

Langen temperature yesterday

Maximum temperature yesterday: 50 °F (at 1:50 PM)
Minimum temperature yesterday: 36 °F (at 9:20 PM)
Average temperature yesterday: 44 °F

Past Weeks' High & Low Weather Summary

 TemperatureHumidityPressure
High52 °F (Feb 20, 1:50 PM)100% (Feb 22, 2:50 AM)30.74 "Hg (Feb 22, 2:50 AM)
Low28 °F (Feb 28, 6:50 AM)35% (Mar 2, 2:50 PM)29.45 "Hg (Feb 21, 7:20 AM)
Average39 °F79%30.00 "Hg
* Reported Feb 16 8:20 AM — Mar 3 8:20 AM, Langen, Weather by CustomWeather, © 2015

Note: Actual official high and low records may vary slightly from our data, if they occured in-between our weather recording intervals... More about our weather records

Advertising

Langen weather history for previous 24 hours

 ConditionsComfort  
Time TempWeatherWind HumidityBarometerVisibility
8:20 AM
Tue, Mar 3
36 °FScattered clouds.7 mph81%30.15 "HgN/A
7:50 AM34 °FPartly sunny.7 mph87%30.15 "HgN/A
7:20 AM32 °FScattered clouds.6 mph87%30.15 "HgN/A
6:50 AM34 °FPassing clouds.3 mph81%30.12 "HgN/A
6:20 AM34 °FClear.5 mph81%30.12 "Hg10 mi
5:50 AM34 °FClear.7 mph81%30.12 "Hg10 mi
5:20 AM34 °FPassing clouds.6 mph81%30.12 "HgN/A
4:50 AM34 °FClear.10 mph81%30.12 "Hg10 mi
4:20 AM34 °FClear.13 mph81%30.12 "Hg10 mi
3:50 AM34 °FClear.10 mph81%30.12 "Hg10 mi
3:20 AM36 °FClear.12 mph75%30.09 "Hg10 mi
2:50 AM36 °FClear.10 mph75%30.09 "Hg10 mi
2:20 AM36 °FClear.10 mph75%30.09 "Hg10 mi
1:50 AM37 °FClear.15 mph70%30.09 "Hg10 mi
1:20 AM36 °FClear.12 mph75%30.09 "Hg10 mi
12:50 AM36 °FClear.12 mph81%30.07 "Hg10 mi
12:20 AM36 °FClear.9 mph81%30.07 "Hg10 mi
11:50 PM
Mon, Mar 2
36 °FClear.8 mph87%30.04 "Hg10 mi
11:20 PM36 °FClear.12 mph87%30.04 "Hg10 mi
10:50 PM37 °FClear.16 mph81%30.04 "Hg10 mi
10:20 PM37 °FPassing clouds.20 mph75%30.01 "HgN/A
9:50 PM36 °FSprinkles. Partly cloudy.16 mph87%30.01 "Hg5 mi
9:20 PM36 °FClear.10 mph81%29.95 "Hg10 mi
8:50 PM37 °FClear.9 mph75%29.95 "Hg10 mi
8:20 PM37 °FClear.9 mph75%29.92 "Hg10 mi
7:50 PM39 °FClear.16 mph70%29.92 "Hg10 mi
7:20 PM39 °FPassing clouds.15 mph70%29.89 "HgN/A
6:50 PM37 °FRain showers. Partly cloudy.26 mph87%29.89 "HgN/A
6:20 PM43 °FScattered showers. Passing clouds.14 mph66%29.83 "HgN/A
5:50 PM43 °FScattered showers. Partly sunny.16 mph71%29.83 "HgN/A
5:20 PM43 °FSprinkles. Broken clouds.24 mph76%29.80 "Hg6 mi
4:50 PM48 °FSprinkles. Broken clouds.18 mph43%29.74 "HgN/A
4:20 PM50 °FScattered showers. Broken clouds.10 mph37%29.74 "HgN/A
3:50 PM50 °FPartly sunny.13 mph37%29.74 "HgN/A
3:20 PM50 °FScattered clouds.15 mph40%29.74 "HgN/A
2:50 PM50 °FPartly sunny.20 mph35%29.74 "HgN/A
2:20 PM50 °FPartly sunny.17 mph40%29.74 "HgN/A
1:50 PM50 °FScattered clouds.17 mph47%29.74 "HgN/A
1:20 PM48 °FScattered clouds.15 mph50%29.74 "HgN/A
12:50 PM48 °FPassing clouds.14 mph50%29.74 "HgN/A
12:20 PM48 °FPassing clouds.16 mph50%29.74 "HgN/A
11:50 AM46 °FPassing clouds.15 mph62%29.74 "HgN/A
11:20 AM45 °FScattered showers. Passing clouds.17 mph66%29.74 "HgN/A
10:50 AM43 °FScattered showers. Partly sunny.23 mph66%29.74 "HgN/A
10:20 AM46 °FScattered showers. Partly sunny.20 mph57%29.71 "HgN/A
9:50 AM45 °FScattered showers. Passing clouds.17 mph66%29.68 "HgN/A
9:20 AM45 °FPassing clouds.12 mph71%29.68 "HgN/A
Weather by CustomWeather, © 2015

See weather overviewHow to use our weather pages